Home > Weather > Schwabach > Past weeks

Flag for Germany Past Weather in Schwabach, Bavaria, Germany — Yesterday and Last 2 Weeks

Now
79 °F

Partly sunny.


Feels Like: 80 °F
Forecast: 62 / 81 °F
Wind: 1 mph from North

Location: Nuernberg

Current Time: Jul 23, 2016 at 6:58:35 PM

Latest Report: Jul 23, 2016 at 6:20 PM


Visibility: N/A

Pressure: 30.04 "Hg

Humidity: 58%

Dew Point: 63 °F

Location of SchwabachLocation

Past Weather in Schwabach — Graph

°F

Schwabach Temperature Yesterday

Maximum temperature yesterday: 82 °F (at 4:20 PM)
Minimum temperature yesterday: 59 °F (at 3:50 AM)
Average temperature yesterday: 71 °F

High & Low Weather Summary for the Past Weeks

 TemperatureHumidityPressure
High90 °F (Jul 20, 6:50 PM)100% (Jul 13, 3:50 PM)30.33 "Hg (Jul 13, 3:50 PM)
Low46 °F (Jul 16, 3:20 AM)26% (Jul 8, 5:50 PM)29.86 "Hg (Jul 10, 9:20 PM)
Average68 °F68%30.07 "Hg
* Reported Jul 8 5:20 PM — Jul 23 5:20 PM, Schwabach, Weather by CustomWeather, © 2016

Note: Actual official high and low records may vary slightly from our data, if they occured in-between our weather recording intervals... More about our weather records

Advertising

Schwabach Weather History for the Previous 24 Hours

Scroll right to see more
 ConditionsComfort  
Time TempWeatherWind HumidityBarometerVisibility
5:20 PM
Sat, Jul 23
77 °FPartly sunny.2 mph65%30.04 "HgN/A
4:50 PM75 °FPartly sunny.5 mph69%30.04 "HgN/A
4:20 PM75 °FPartly sunny.7 mph69%30.04 "HgN/A
3:50 PM75 °FPartly sunny.7 mph65%30.04 "HgN/A
3:20 PM75 °FPartly sunny.10 mph69%30.07 "HgN/A
2:50 PM73 °FBroken clouds.8 mph74%30.07 "HgN/A
2:20 PM73 °FBroken clouds.7 mph74%30.07 "HgN/A
1:50 PM72 °FPartly sunny.5 mph78%30.07 "HgN/A
1:20 PM73 °FBroken clouds.5 mph69%30.04 "HgN/A
12:50 PM72 °FPartly sunny.2 mph78%30.04 "HgN/A
12:20 PM72 °FPartly sunny.2 mph78%30.04 "HgN/A
11:50 AM72 °FPartly sunny.2 mph78%30.07 "HgN/A
11:20 AM70 °FPartly sunny.2 mph83%30.07 "HgN/A
10:50 AM70 °FPartly sunny.3 mph83%30.04 "HgN/A
10:20 AM68 °FPartly sunny.7 mph88%30.04 "HgN/A
9:50 AM68 °FPartly sunny.6 mph88%30.04 "HgN/A
9:20 AM66 °FBroken clouds.3 mph88%30.04 "HgN/A
8:50 AM66 °FBroken clouds.5 mph94%30.04 "HgN/A
8:20 AM66 °FLight rain. Broken clouds.1 mph94%30.01 "HgN/A
7:50 AM64 °FSprinkles. Partly sunny.2 mph100%30.04 "HgN/A
7:20 AM64 °FSprinkles. Broken clouds.2 mph94%30.01 "Hg6 mi
6:50 AM63 °FRain showers. Broken clouds.5 mph100%30.01 "Hg3 mi
6:20 AM66 °FThunderstorms. Partly cloudy.7 mph94%30.04 "Hg4 mi
5:50 AM66 °FThundershowers. Passing clouds.3 mph88%30.01 "HgN/A
5:20 AM66 °FPassing clouds.2 mph94%30.01 "HgN/A
4:50 AM66 °FPassing clouds.2 mph94%30.01 "HgN/A
4:20 AM66 °FClear.2 mph94%30.01 "Hg10 mi
3:50 AM66 °FPassing clouds.3 mph88%30.01 "HgN/A
3:20 AM68 °FPassing clouds.5 mph83%30.01 "HgN/A
2:50 AM68 °FPassing clouds.3 mph88%30.01 "HgN/A
2:20 AM68 °FPassing clouds.6 mph83%30.01 "HgN/A
1:50 AM70 °FPassing clouds.3 mph78%30.01 "HgN/A
1:20 AM68 °FPartly cloudy.1 mph88%30.01 "HgN/A
12:50 AM68 °FPartly cloudy.No wind88%30.01 "HgN/A
12:20 AM68 °FPassing clouds.1 mph83%30.01 "HgN/A
11:50 PM
Fri, Jul 22
70 °FPassing clouds.1 mph78%30.01 "HgN/A
11:20 PM72 °FClear.No wind73%30.01 "Hg10 mi
10:50 PM72 °FClear.1 mph73%29.98 "Hg10 mi
10:20 PM73 °FClear.1 mph69%29.98 "Hg10 mi
9:50 PM73 °FSunny.2 mph69%29.98 "Hg10 mi
9:20 PM75 °FSunny.No wind65%29.98 "Hg10 mi
8:50 PM77 °FSunny.No wind61%29.98 "Hg10 mi
8:20 PM77 °FSunny.No wind65%29.98 "Hg10 mi
7:50 PM79 °FSunny.1 mph54%29.98 "Hg10 mi
7:20 PM81 °FSunny.5 mph51%29.98 "Hg10 mi
6:50 PM81 °FPassing clouds.6 mph48%29.98 "HgN/A
6:20 PM82 °FSunny.6 mph45%29.98 "Hg10 mi
Weather by CustomWeather, © 2016

See weather overviewHow to use our weather pages